When you browse on this site, cookies collect data to enhance your experience and personalize the content and advertising you see.
Visit our Privacy Policy to learn more. By continuing to use the site, you agree to this use of cookies and data.
  • In Sweden
  • List of Countries
  • For 7 days
  • Water Temperature
  • Satellite Maps
  • Weather Map
  • Weather Widgets
  • user-avatar
    Login

    Hourly Weather Unino

    Today, 22 May, Wednesday

    Time Temperature Precipitation Wind Pressure Humidity
    00:00 +16°C° 0 mm 2 mps 749 mmHg 87%
    01:00 +15°C° 0 mm 2 mps 749 mmHg 91%
    02:00 +14°C° 0 mm 2 mps 748 mmHg 94%
    03:00 +14°C° 0 mm 2 mps 748 mmHg 94%
    04:00 +15°C° 0 mm 1 mps 748 mmHg 93%
    05:00 +15°C° 0 mm 1 mps 748 mmHg 93%
    06:00 +18°C° 0 mm 1 mps 748 mmHg 87%
    07:00 +19°C° 0 mm 1 mps 748 mmHg 80%
    08:00 +21°C° 0 mm 1 mps 748 mmHg 74%
    09:00 +21°C° 0.3 mm 2 mps 747 mmHg 72%
    10:00 +23°C° 0.3 mm 2 mps 747 mmHg 69%
    11:00 +24°C° 0.3 mm 2 mps 747 mmHg 67%
    12:00 +24°C° 0 mm 2 mps 746 mmHg 63%
    13:00 +25°C° 0 mm 2 mps 746 mmHg 60%
    14:00 +26°C° 0 mm 1 mps 746 mmHg 56%
    15:00 +26°C° 0.2 mm 1 mps 746 mmHg 59%
    16:00 +25°C° 0.2 mm 1 mps 746 mmHg 61%
    17:00 +25°C° 0.2 mm 1 mps 746 mmHg 64%
    18:00 +23°C° 0.1 mm 1 mps 745 mmHg 71%
    19:00 +19°C° 0.1 mm 0 mps 745 mmHg 78%
    20:00 +18°C° 0.1 mm 0 mps 745 mmHg 84%
    21:00 +17°C° 0.9 mm 0 mps 745 mmHg 87%
    22:00 +16°C° 0.9 mm 0 mps 745 mmHg 90%
    23:00 +15°C° 0.9 mm 0 mps 745 mmHg 92%

    Tomorrow, 23 May, Thursday

    Time Temperature Precipitation Wind Pressure Humidity
    00:00 +15°C° 0 mm 0 mps 745 mmHg 93%
    01:00 +15°C° 0 mm 0 mps 745 mmHg 93%
    02:00 +14°C° 0 mm 0 mps 745 mmHg 94%
    03:00 +14°C° 0 mm 0 mps 745 mmHg 94%
    04:00 +16°C° 0 mm 1 mps 745 mmHg 94%
    05:00 +16°C° 0 mm 1 mps 744 mmHg 94%
    06:00 +18°C° 0 mm 1 mps 744 mmHg 88%
    07:00 +20°C° 0 mm 1 mps 744 mmHg 83%
    08:00 +22°C° 0 mm 1 mps 744 mmHg 77%
    09:00 +23°C° 0.9 mm 1 mps 744 mmHg 76%
    10:00 +23°C° 0.9 mm 2 mps 744 mmHg 74%
    11:00 +24°C° 0.9 mm 2 mps 744 mmHg 73%
    12:00 +25°C° 0.3 mm 2 mps 744 mmHg 67%
    13:00 +25°C° 0.3 mm 2 mps 744 mmHg 61%
    14:00 +26°C° 0.3 mm 2 mps 744 mmHg 55%
    15:00 +26°C° 0.1 mm 3 mps 744 mmHg 58%
    16:00 +25°C° 0.1 mm 3 mps 744 mmHg 61%
    17:00 +25°C° 0.1 mm 3 mps 744 mmHg 64%
    18:00 +23°C° 0.3 mm 2 mps 744 mmHg 73%
    19:00 +20°C° 0.3 mm 2 mps 745 mmHg 83%
    20:00 +18°C° 0.3 mm 2 mps 745 mmHg 92%
    21:00 +17°C° 0 mm 2 mps 745 mmHg 94%
    22:00 +16°C° 0 mm 2 mps 746 mmHg 96%
    23:00 +15°C° 0 mm 2 mps 746 mmHg 97%

    Day after tomorrow, 24 May, Friday

    Time Temperature Precipitation Wind Pressure Humidity
    00:00 +15°C° 0 mm 2 mps 746 mmHg 98%
    01:00 +14°C° 0 mm 2 mps 746 mmHg 98%
    02:00 +13°C° 0 mm 2 mps 747 mmHg 98%
    03:00 +13°C° 0 mm 2 mps 747 mmHg 97%
    04:00 +13°C° 0 mm 2 mps 747 mmHg 96%
    05:00 +13°C° 0 mm 2 mps 747 mmHg 94%
    06:00 +14°C° 0 mm 2 mps 747 mmHg 90%
    07:00 +15°C° 0 mm 2 mps 748 mmHg 86%
    08:00 +15°C° 0 mm 2 mps 748 mmHg 82%
    09:00 +17°C° 0 mm 2 mps 748 mmHg 75%
    10:00 +19°C° 0 mm 2 mps 748 mmHg 68%
    11:00 +21°C° 0 mm 2 mps 748 mmHg 61%
    12:00 +21°C° 0 mm 2 mps 747 mmHg 59%
    13:00 +23°C° 0 mm 2 mps 747 mmHg 56%
    14:00 +24°C° 0 mm 2 mps 747 mmHg 53%
    15:00 +24°C° 0.1 mm 2 mps 747 mmHg 57%
    16:00 +23°C° 0.1 mm 2 mps 746 mmHg 61%
    17:00 +23°C° 0.1 mm 2 mps 746 mmHg 65%
    18:00 +20°C° 0.4 mm 2 mps 746 mmHg 74%
    19:00 +19°C° 0.4 mm 2 mps 746 mmHg 83%
    20:00 +17°C° 0.4 mm 2 mps 746 mmHg 91%
    21:00 +16°C° 0.1 mm 2 mps 746 mmHg 93%
    22:00 +16°C° 0.1 mm 2 mps 746 mmHg 94%
    23:00 +15°C° 0.1 mm 2 mps 746 mmHg 95%

    25 May, Saturday

    Time Temperature Precipitation Wind Pressure Humidity
    00:00 +15°C° 0 mm 1 mps 746 mmHg 96%
    01:00 +14°C° 0 mm 1 mps 745 mmHg 96%
    02:00 +14°C° 0 mm 1 mps 745 mmHg 96%
    03:00 +14°C° 0 mm 1 mps 745 mmHg 96%
    04:00 +14°C° 0 mm 1 mps 745 mmHg 96%
    05:00 +15°C° 0 mm 1 mps 745 mmHg 96%
    06:00 +16°C° 0 mm 1 mps 745 mmHg 92%
    07:00 +18°C° 0 mm 1 mps 745 mmHg 89%
    08:00 +19°C° 0 mm 1 mps 744 mmHg 86%
    09:00 +18°C° 0.7 mm 2 mps 744 mmHg 87%
    10:00 +18°C° 0.7 mm 2 mps 744 mmHg 89%
    11:00 +18°C° 0.7 mm 3 mps 744 mmHg 90%
    12:00 +19°C° 0.2 mm 2 mps 744 mmHg 80%
    13:00 +20°C° 0.2 mm 2 mps 744 mmHg 71%
    14:00 +21°C° 0.2 mm 2 mps 743 mmHg 61%
    15:00 +22°C° 0 mm 1 mps 743 mmHg 59%
    16:00 +22°C° 0 mm 1 mps 743 mmHg 56%
    17:00 +22°C° 0 mm 1 mps 742 mmHg 54%
    18:00 +20°C° 0 mm 1 mps 742 mmHg 61%
    19:00 +19°C° 0 mm 1 mps 742 mmHg 68%
    20:00 +16°C° 0 mm 1 mps 742 mmHg 75%
    21:00 +15°C° 0 mm 1 mps 742 mmHg 80%
    22:00 +14°C° 0 mm 2 mps 742 mmHg 84%
    23:00 +12°C° 0 mm 2 mps 742 mmHg 89%

    26 May, Sunday

    Time Temperature Precipitation Wind Pressure Humidity
    00:00 +12°C° 0 mm 2 mps 742 mmHg 92%
    01:00 +10°C° 0 mm 2 mps 742 mmHg 95%
    02:00 +9°C° 0 mm 2 mps 742 mmHg 97%
    03:00 +9°C° 0 mm 2 mps 742 mmHg 96%
    04:00 +9°C° 0 mm 2 mps 742 mmHg 95%
    05:00 +9°C° 0 mm 2 mps 742 mmHg 95%
    06:00 +9°C° 0 mm 2 mps 742 mmHg 90%
    07:00 +10°C° 0 mm 2 mps 742 mmHg 85%
    08:00 +11°C° 0 mm 3 mps 742 mmHg 81%
    09:00 +11°C° 0.1 mm 3 mps 742 mmHg 78%
    10:00 +11°C° 0.1 mm 3 mps 742 mmHg 75%
    11:00 +11°C° 0.1 mm 3 mps 742 mmHg 72%
    12:00 +12°C° 0 mm 3 mps 742 mmHg 70%
    13:00 +13°C° 0 mm 3 mps 742 mmHg 68%
    14:00 +13°C° 0 mm 3 mps 742 mmHg 66%
    15:00 +13°C° 0.2 mm 4 mps 741 mmHg 70%
    16:00 +13°C° 0.2 mm 4 mps 741 mmHg 74%
    17:00 +13°C° 0.2 mm 4 mps 741 mmHg 78%
    18:00 +12°C° 0.3 mm 4 mps 741 mmHg 82%
    19:00 +12°C° 0.3 mm 3 mps 740 mmHg 86%
    20:00 +11°C° 0.3 mm 3 mps 740 mmHg 89%
    21:00 +10°C° 0.7 mm 3 mps 740 mmHg 91%
    22:00 +9°C° 0.7 mm 3 mps 740 mmHg 93%
    23:00 +7°C° 0.7 mm 4 mps 740 mmHg 94%

    27 May, Monday

    Time Temperature Precipitation Wind Pressure Humidity
    00:00 +7°C° 0.2 mm 3 mps 740 mmHg 95%
    01:00 +7°C° 0.2 mm 3 mps 740 mmHg 95%
    02:00 +5°C° 0.2 mm 3 mps 740 mmHg 95%
    03:00 +5°C° 0 mm 3 mps 740 mmHg 95%
    04:00 +5°C° 0 mm 3 mps 740 mmHg 95%
    05:00 +5°C° 0 mm 3 mps 740 mmHg 95%
    06:00 +5°C° 0 mm 3 mps 741 mmHg 92%
    07:00 +6°C° 0 mm 4 mps 741 mmHg 90%
    08:00 +7°C° 0 mm 4 mps 741 mmHg 87%
    09:00 +8°C° 0.1 mm 4 mps 742 mmHg 83%
    10:00 +10°C° 0.1 mm 4 mps 743 mmHg 79%
    11:00 +11°C° 0.1 mm 4 mps 743 mmHg 75%
    12:00 +12°C° 0 mm 4 mps 744 mmHg 71%
    13:00 +13°C° 0 mm 4 mps 744 mmHg 67%
    14:00 +14°C° 0 mm 3 mps 745 mmHg 62%
    15:00 +14°C° 0 mm 3 mps 745 mmHg 62%
    16:00 +15°C° 0 mm 4 mps 745 mmHg 61%
    17:00 +15°C° 0 mm 4 mps 745 mmHg 61%
    18:00 +13°C° 0 mm 3 mps 746 mmHg 68%
    19:00 +12°C° 0 mm 3 mps 746 mmHg 75%
    20:00 +12°C° 0 mm 2 mps 746 mmHg 81%
    21:00 +10°C° 0 mm 2 mps 746 mmHg 86%
    22:00 +9°C° 0 mm 2 mps 747 mmHg 91%
    23:00 +7°C° 0 mm 2 mps 747 mmHg 95%
    Show more